sat.trackr.live / text

‹ back to catalog

ONEWEB-0196

NORAD 48218 · 2021-031J

PAYLOAD ACTIVE UNKNOWN

§ Identity

Operator
Country
UK
Launch date
2021-04-25
Launch site
VOSTO
Launch vehicle
Mass (kg)
RCS (m²)

Purposes: comms

External: N2YO · Heavens-Above · Gunter

§ Orbital elements

Epoch: 2026-09-19T23:38:35.435040Z

Period
109.55 min
Inclination
87.8898°
Eccentricity
0.0001694
Mean motion
13.14502923 rev/d
Perigee alt
1,204.5 km
Apogee alt
1,207.1 km
Semi-major
7,583.9 km
B*
-2.8743e-4
RAAN
270.8003°
Arg perigee
91.3613°
Mean anomaly
268.7710°
Rev number
26,068

§ Raw data

ONEWEB-01961 48218U 21031J   26262.98513235 -.00000094  00000+0 -28743-3 0  99952 48218  87.8898 270.8003 0001694  91.3613 268.7710 13.14502923260689

JSON: /api/v1/satellites/48218 · /tle

For live sub-satellite position, see the globe view (requires WebGL).

§ Visibility from observer

Set your observer location to see the next 7 days of passes ≥ 10°. The values pass through the URL so the page stays shareable.

No JS? Fill the form by hand. The geolocation button needs JavaScript.